Find Starlink 30502

NORAD ID: 57973 Int'l Des: 2023-151 Owner: SPXS Country: US Constellation: starlink operational
LEOCIRCULAR

現在のビュー

3D地球を読み込み中...

About Starlink 30502

Starlink 30502 (NORAD 57973) is a starlink constellation satellite (v2 mini) launched Sep 30, 2023 by SPXS of US. It operates in LEO, CIRCULAR orbit with a mass of 730.00 kg.

Starlink 30502について

説明を読み込み中...

次回通過

Passes for default location (London). Set your location on the main map for personalized predictions.

高度履歴

Loading altitude history...

軌道要素

1 57973U 23151K 26170.14483921 .00000572 00000-0 30303-4 0 9998
2 57973 43.0001 122.9416 0001082 260.6467 99.4262 15.27578553151285
Epoch: Jun 19, 2026 • Age: 6 hours

現在のステータス

高度 482.4 km
速度 7.63 km/s
衛星直下点 8.85°N, 76.23°E
打ち上げ日 Sep 30, 2023
運用期間 2.7 years
タイプ internet

技術仕様

分類 Payload
質量 730.00 kg
乾燥質量 700.00 kg
総質量 730.00 kg
長さ 0.30 m
直径 4.10 m
スパン 29.00 m
形状 Box + pan
製造者 SPXS
バスタイプ Starlink V2M
フェーズステータス In Orbit
所有者/国 SPXS/US

Most Searched